Home   Weather   Yangpu   Past weeks
Flag for China

Past Weather in Yangpu, Shanghai Municipality, China — Yesterday and Last 2 Weeks

Currently: 70 °F. Passing clouds. (Weather station: Shanghai Hongqiao Airport, China). See more current weather

Past Weather in Yangpu — Graph

°F

Yangpu Temperature Yesterday

Maximum temperature yesterday: 79 °F (at 1:30 pm)
Minimum temperature yesterday: 64 °F (at 5:00 am)
Average temperature yesterday: 71 °F

High & Low Weather Summary for the Past Weeks

 TemperatureHumidityPressure
High82 °F (May 17, 12:00 pm)100% (May 12, 7:30 pm)30.09 "Hg (May 12, 7:30 pm)
Low54 °F (May 14, 4:30 am)17% (May 18, 3:30 pm)29.71 "Hg (May 26, 3:30 pm)
Average69 °F65%29.93 "Hg
* Reported May 11 7:00 pm — May 26 7:30 pm, Yangpu. Weather by CustomWeather, © 2022

Note: Actual official high and low records may vary slightly from our data, if they occured in-between our weather recording intervals... More about our weather records

Yangpu Weather History for the Previous 24 Hours

Scroll right to see more
 ConditionsComfort  
Time TempWeatherWind HumidityBarometerVisibility
7:30 pm
Thu, May 26
72 °FClear.6 mph69%29.71 "Hg10 mi
7:00 pm72 °FClear.8 mph69%29.71 "Hg10 mi
6:30 pm72 °FSunny.8 mph73%29.71 "Hg10 mi
6:00 pm73 °FPassing clouds.6 mph69%29.71 "HgN/A
5:30 pm73 °FPassing clouds.6 mph69%29.71 "HgN/A
5:00 pm73 °FPassing clouds.6 mph69%29.71 "HgN/A
4:30 pm73 °FPassing clouds.6 mph69%29.71 "HgN/A
4:00 pm75 °FScattered clouds.6 mph65%29.71 "HgN/A
3:30 pm75 °FScattered clouds.6 mph65%29.71 "HgN/A
3:00 pm77 °FScattered clouds.3 mph65%29.74 "HgN/A
2:30 pm73 °FScattered clouds.3 mph69%29.74 "HgN/A
2:00 pm75 °FScattered clouds.1 mph65%29.74 "HgN/A
1:30 pm75 °FScattered clouds.1 mph65%29.77 "HgN/A
1:00 pm75 °FScattered clouds.1 mph65%29.77 "HgN/A
12:30 pm72 °FScattered clouds.1 mph73%29.77 "Hg5 mi
12:00 pm73 °FScattered clouds.1 mph69%29.77 "Hg5 mi
11:30 am72 °FScattered clouds.3 mph73%29.80 "Hg5 mi
11:00 am72 °FScattered clouds.6 mph78%29.80 "Hg5 mi
10:30 am72 °FClear.3 mph73%29.80 "Hg5 mi
10:00 am72 °FClear.3 mph73%29.77 "Hg5 mi
9:30 am70 °FClear.6 mph78%29.80 "Hg5 mi
9:00 am68 °FClear.3 mph83%29.80 "Hg5 mi
8:30 am68 °FLight rain. Clear.3 mph83%29.83 "Hg5 mi
7:30 am66 °FLight rain. Clear.1 mph88%29.83 "Hg4 mi
7:00 am68 °FLight rain. Clear.3 mph78%29.83 "HgN/A
6:30 am68 °FSunny.3 mph73%29.80 "Hg10 mi
6:00 am68 °FSunny.1 mph73%29.80 "Hg10 mi
5:00 am68 °FPassing clouds.3 mph73%29.77 "HgN/A
4:00 am68 °FClear.1 mph78%29.77 "Hg10 mi
3:30 am68 °FClear.1 mph73%29.77 "Hg10 mi
3:00 am68 °FClear.3 mph73%29.77 "Hg10 mi
2:30 am68 °FClear.No wind73%29.80 "Hg10 mi
2:00 am68 °FClear.1 mph73%29.80 "Hg10 mi
1:30 am68 °FClear.1 mph73%29.80 "Hg10 mi
1:00 am66 °FClear.1 mph78%29.80 "Hg10 mi
12:30 am68 °FClear.1 mph73%29.80 "Hg10 mi
12:00 am66 °FClear.3 mph78%29.83 "Hg10 mi
11:30 pm
Wed, May 25
68 °FClear.6 mph73%29.83 "Hg10 mi
11:00 pm68 °FClear.6 mph78%29.83 "Hg10 mi
10:30 pm68 °FClear.6 mph78%29.83 "Hg10 mi
10:00 pm70 °FClear.6 mph73%29.83 "Hg10 mi
9:30 pm70 °FClear.6 mph73%29.83 "Hg10 mi
9:00 pm72 °FClear.6 mph69%29.83 "Hg10 mi
Weather by CustomWeather, © 2022

See weather overview